Weather History for KVTI - November, 2013

Change the Weather History Date:

Wednesday, November 20, 2013

  Actual Average Record
Temperature  
Mean Temperature 36 °F -  
Max Temperature 39 °F 43 °F 69 °F (2003)
Min Temperature 34 °F 26 °F 6 °F (2014)
Degree Days  
Heating Degree Days 28    
Moisture  
Dew Point 31 °F    
Average Humidity 79    
Maximum Humidity 90    
Minimum Humidity 60    
Precipitation  
Precipitation 0.05 in - - ()
Sea Level Pressure  
Sea Level Pressure 30.03 in    
Wind  
Wind Speed 15 mph (SSE)    
Max Wind Speed 22 mph    
Max Gust Speed 29 mph    
Visibility 7 miles    
Events Rain    
Averages and records for this station are not official NWS values.
T = Trace of Precipitation, MM = Missing Value Source: NWS Daily Summary

Daily Weather History Graph

Daily Weather History Graph

Search for Another Location

Airport or City:

Trip Planner

Search our weather history database for the weather conditions in past years. The results will help you decide how hot, cold, wet, or windy it might be!

Date:

Astronomy

Nov. 20, 2013 Rise Set
Actual Time 7:04 AM CST 4:42 PM CST
Civil Twilight 6:34 AM CST 5:12 PM CST
Nautical Twilight 6:00 AM CST 5:47 PM CST
Astronomical Twilight 5:26 AM CST 6:20 PM CST
Moon 7:25 PM CST (11/20) 9:30 AM CST (11/20)
Length of Visible Light 10h 38m
Length of Day
9h 37m
Waning Gibbous, 91% of the Moon is Illuminated
Nov 20
Waning Gibbous
Nov 25
Last Quarter
Dec 2
New
Dec 9
First Quarter
Dec 17
Full

Hourly Weather History & Observations

Time (CST) Temp. Windchill Dew Point Humidity Pressure Visibility Wind Dir Wind Speed Gust Speed Precip Events Conditions
12:15 AM 39.4 °F 30.1 °F 26.6 °F 60% 30.09 in 10.0 mi SSE 18.4 mph 24.2 mph N/A   Scattered Clouds
12:35 AM 39.4 °F 30.1 °F 26.8 °F 61% 30.08 in 10.0 mi SSE 18.4 mph 25.3 mph N/A   Scattered Clouds
12:55 AM 39.4 °F 30.4 °F 27.1 °F 62% 30.08 in 10.0 mi SSE 17.3 mph 21.9 mph N/A   Scattered Clouds
1:15 AM 39.4 °F 30.7 °F 26.8 °F 61% 30.08 in 10.0 mi SSE 16.1 mph 25.3 mph N/A   Scattered Clouds
1:35 AM 39.4 °F 31.1 °F 26.6 °F 60% 30.08 in 10.0 mi SSE 15.0 mph 24.2 mph N/A   Scattered Clouds
1:55 AM 39.4 °F 30.4 °F 27.1 °F 62% 30.08 in 10.0 mi SSE 17.3 mph 21.9 mph N/A   Clear
2:15 AM 39.4 °F 31.4 °F 27.1 °F 62% 30.09 in 10.0 mi SSE 13.8 mph 21.9 mph N/A   Clear
2:35 AM 39.4 °F 30.7 °F 27.5 °F 62% 30.09 in 10.0 mi SSE 16.1 mph 21.9 mph N/A   Scattered Clouds
2:55 AM 39.4 °F 31.8 °F 27.3 °F 62% 30.09 in 10.0 mi SSE 12.7 mph 24.2 mph N/A   Scattered Clouds
3:15 AM 39.4 °F 30.4 °F 27.9 °F 63% 30.08 in 10.0 mi SSE 17.3 mph - N/A   Scattered Clouds
3:35 AM 39.4 °F 30.7 °F 28.0 °F 64% 30.07 in 10.0 mi SSE 16.1 mph 21.9 mph N/A   Scattered Clouds
3:55 AM 39.0 °F 30.6 °F 28.2 °F 65% 30.06 in 10.0 mi SSE 15.0 mph 20.7 mph N/A   Scattered Clouds
4:15 AM 37.6 °F 29.1 °F 26.8 °F 65% 30.06 in 10.0 mi SSE 13.8 mph - N/A   Scattered Clouds
4:35 AM 37.2 °F 28.3 °F 26.6 °F 65% 30.05 in 10.0 mi SSE 15.0 mph 19.6 mph N/A   Mostly Cloudy
4:55 AM 36.9 °F 27.5 °F 26.2 °F 65% 30.05 in 10.0 mi SSE 16.1 mph - N/A   Scattered Clouds
5:15 AM 36.9 °F 27.8 °F 25.7 °F 64% 30.05 in 10.0 mi SSE 15.0 mph 21.9 mph N/A   Scattered Clouds
5:35 AM 36.9 °F 27.8 °F 26.6 °F 66% 30.04 in 10.0 mi SSE 15.0 mph 21.9 mph N/A   Scattered Clouds
5:55 AM 36.9 °F 27.5 °F 26.4 °F 66% 30.04 in 10.0 mi SSE 16.1 mph 20.7 mph N/A   Mostly Cloudy
6:15 AM 36.9 °F 28.2 °F 26.1 °F 65% 30.05 in 10.0 mi SSE 13.8 mph 21.9 mph N/A   Mostly Cloudy
6:35 AM 36.9 °F 28.2 °F 26.4 °F 66% 30.05 in 10.0 mi SSE 13.8 mph 20.7 mph N/A   Overcast
6:55 AM 36.9 °F 26.8 °F 26.6 °F 66% 30.05 in 10.0 mi SSE 18.4 mph 24.2 mph N/A   Mostly Cloudy
7:15 AM 36.9 °F 26.5 °F 26.6 °F 66% 30.05 in 10.0 mi SSE 19.6 mph 26.5 mph N/A   Scattered Clouds
7:35 AM 36.9 °F 27.1 °F 27.0 °F 67% 30.05 in 10.0 mi SSE 17.3 mph 25.3 mph N/A   Scattered Clouds
7:55 AM 36.9 °F 25.9 °F 27.7 °F 69% 30.05 in 10.0 mi SSE 21.9 mph 26.5 mph N/A   Drizzle
8:15 AM 36.9 °F 26.8 °F 29.3 °F 74% 30.06 in 5.0 mi SSE 18.4 mph 28.8 mph N/A Rain Light Rain
8:35 AM 35.6 °F 26.6 °F 30.0 °F 80% 30.06 in 3.0 mi SSE 13.8 mph 19.6 mph 0.01 in Rain Light Rain
8:55 AM 34.3 °F 23.9 °F 29.5 °F 82% 30.06 in 3.0 mi SSE 17.3 mph 24.2 mph 0.02 in   Overcast
9:15 AM 34.5 °F 25.7 °F 30.0 °F 84% 30.07 in 4.0 mi SSE 12.7 mph 19.6 mph 0.01 in Rain Light Rain
9:35 AM 34.5 °F 25.3 °F 30.2 °F 84% 30.07 in 5.0 mi SSE 13.8 mph - 0.01 in Rain Light Rain
9:55 AM 35.6 °F 26.2 °F 31.1 °F 84% 30.06 in 7.0 mi SSE 15.0 mph 20.7 mph 0.01 in Rain Light Rain
10:15 AM 35.6 °F 25.9 °F 31.1 °F 84% 30.05 in 5.0 mi SSE 16.1 mph - N/A Rain Light Rain
10:35 AM 35.6 °F 26.6 °F 31.6 °F 85% 30.05 in 3.0 mi SSE 13.8 mph - 0.01 in Rain Light Rain
10:55 AM 36.0 °F 27.1 °F 32.0 °F 86% 30.05 in 4.0 mi SSE 13.8 mph - 0.01 in Rain Light Rain
11:15 AM 36.9 °F 29.1 °F 32.7 °F 85% 30.05 in 4.0 mi SSE 11.5 mph 17.3 mph N/A Rain Light Rain
11:35 AM 36.9 °F 29.6 °F 32.9 °F 86% 30.03 in 4.0 mi SSE 10.4 mph 18.4 mph 0.01 in Rain Light Rain
11:55 AM 36.9 °F 28.7 °F 32.9 °F 86% 30.03 in 5.0 mi SSE 12.7 mph - 0.01 in Rain Rain
12:15 PM 36.9 °F 28.7 °F 32.7 °F 85% 30.01 in 7.0 mi SSE 12.7 mph 21.9 mph N/A   Mostly Cloudy
12:35 PM 36.9 °F 29.1 °F 32.2 °F 83% 30.01 in 7.0 mi SSE 11.5 mph 18.4 mph N/A Rain Rain
12:55 PM 36.9 °F 27.8 °F 32.9 °F 86% 30.01 in 4.0 mi SSE 15.0 mph - N/A Rain Light Rain
1:15 PM 36.9 °F 29.6 °F 33.1 °F 86% 30.00 in 4.0 mi SSE 10.4 mph 17.3 mph N/A Rain Rain
1:35 PM 36.9 °F 28.2 °F 33.1 °F 86% 29.99 in 5.0 mi SSE 13.8 mph - N/A   Light Drizzle
1:55 PM 36.9 °F 27.5 °F 32.9 °F 86% 29.99 in 7.0 mi SSE 16.1 mph 21.9 mph N/A   Mostly Cloudy
2:15 PM 36.9 °F 28.2 °F 32.9 °F 86% 29.98 in 5.0 mi SSE 13.8 mph - N/A   Mostly Cloudy
2:35 PM 36.9 °F 28.2 °F 33.1 °F 86% 29.98 in 5.0 mi SE 13.8 mph 17.3 mph N/A   Mostly Cloudy
2:55 PM 36.9 °F 28.7 °F 33.3 °F 87% 29.97 in 5.0 mi SSE 12.7 mph 17.3 mph N/A   Overcast
3:15 PM 36.9 °F 28.7 °F 33.4 °F 87% 29.97 in 5.0 mi SSE 12.7 mph 19.6 mph N/A   Overcast
3:35 PM 36.9 °F 28.2 °F 33.4 °F 87% 29.97 in 5.0 mi SSE 13.8 mph - N/A   Overcast
3:55 PM 36.9 °F 29.1 °F 33.8 °F 89% 29.97 in 7.0 mi SE 11.5 mph 17.3 mph N/A   Overcast
4:15 PM 36.9 °F 29.1 °F 33.8 °F 89% 29.97 in 7.0 mi SSE 11.5 mph - N/A   Overcast
4:35 PM 36.9 °F 29.6 °F 33.8 °F 89% 29.97 in 5.0 mi SE 10.4 mph - N/A   Overcast
4:55 PM 36.9 °F 28.7 °F 34.0 °F 89% 29.98 in 7.0 mi SE 12.7 mph 17.3 mph N/A   Overcast
5:15 PM 36.9 °F 29.1 °F 34.0 °F 89% 29.98 in 5.0 mi SSE 11.5 mph - N/A   Overcast
5:35 PM 36.9 °F 29.1 °F 33.8 °F 89% 29.98 in 7.0 mi SE 11.5 mph - N/A   Overcast
5:55 PM 36.9 °F 29.6 °F 33.8 °F 89% 29.98 in 7.0 mi SE 10.4 mph - N/A   Overcast
6:15 PM 36.9 °F 30.7 °F 33.8 °F 89% 29.99 in 7.0 mi SE 8.1 mph - N/A   Overcast
6:35 PM 36.9 °F 28.7 °F 33.8 °F 89% 30.00 in 7.0 mi SSE 12.7 mph - N/A   Overcast
6:55 PM 36.9 °F 28.7 °F 34.0 °F 89% 30.01 in 5.0 mi SSE 12.7 mph - N/A   Overcast
7:15 PM 36.9 °F 29.1 °F 34.0 °F 89% 30.01 in 5.0 mi SSE 11.5 mph - N/A   Overcast
7:35 PM 36.9 °F 29.6 °F 34.2 °F 90% 30.01 in 4.0 mi SSE 10.4 mph - N/A   Overcast
7:55 PM 36.9 °F 29.1 °F 34.2 °F 90% 30.02 in 4.0 mi SSE 11.5 mph 16.1 mph N/A   Overcast
8:15 PM 36.9 °F 29.6 °F 34.2 °F 90% 30.02 in 4.0 mi SSE 10.4 mph - N/A   Overcast
8:35 PM 36.9 °F 29.1 °F 34.0 °F 89% 30.02 in 4.0 mi SSE 11.5 mph - N/A   Overcast
8:55 PM 36.9 °F 29.6 °F 34.0 °F 89% 30.02 in 4.0 mi SSE 10.4 mph - N/A   Overcast
9:15 PM 36.9 °F 29.6 °F 34.0 °F 89% 30.02 in 4.0 mi SSE 10.4 mph - N/A   Overcast
9:35 PM 36.9 °F 30.1 °F 34.0 °F 89% 30.03 in 4.0 mi SSE 9.2 mph - N/A   Overcast
9:55 PM 36.9 °F 30.7 °F 34.0 °F 89% 30.03 in 5.0 mi SSE 8.1 mph - N/A   Overcast
10:15 PM 36.9 °F 30.7 °F 34.0 °F 89% 30.03 in 4.0 mi SSE 8.1 mph - N/A   Overcast
10:35 PM 37.0 °F 31.0 °F 34.2 °F 89% 30.02 in 5.0 mi SSE 8.1 mph - N/A   Overcast
10:55 PM 37.4 °F 31.4 °F 34.5 °F 89% 30.03 in 5.0 mi SSE 8.1 mph - N/A   Overcast
11:15 PM 37.4 °F 30.8 °F 34.7 °F 90% 30.04 in 5.0 mi SSE 9.2 mph - N/A   Overcast
11:35 PM 37.4 °F 31.4 °F 34.3 °F 89% 30.04 in 4.0 mi SSE 8.1 mph - N/A   Mostly Cloudy
11:55 PM 36.9 °F 30.7 °F 34.0 °F 89% 30.04 in 4.0 mi SSE 8.1 mph - N/A   Mostly Cloudy